sat.trackr.live / text

‹ back to catalog

STARLINK-35457

NORAD 66433 · 2025-259M

PAYLOAD ACTIVE UNKNOWN

§ Identity

Operator
Country
US
Launch date
2025-11-11
Launch site
AFETR
Launch vehicle
Mass (kg)
RCS (m²)

Purposes: comms

External: N2YO · Heavens-Above · Gunter

§ Orbital elements

Epoch: 2026-05-25T04:28:30.060192Z

Period
94.27 min
Inclination
42.9990°
Eccentricity
0.0001237
Mean motion
15.27587517 rev/d
Perigee alt
482.2 km
Apogee alt
483.9 km
Semi-major
6,861.2 km
B*
4.7108e-4
RAAN
202.0592°
Arg perigee
278.4531°
Mean anomaly
81.6180°
Rev number
3,119

§ Raw data

STARLINK-354571 66433U 25259M   26145.18645903  .00012726  00000+0  47108-3 0  99992 66433  42.9990 202.0592 0001237 278.4531  81.6180 15.27587517 31196

JSON: /api/v1/satellites/66433 · /tle

For live sub-satellite position, see the globe view (requires WebGL).

§ Visibility from observer

Set your observer location to see the next 7 days of passes ≥ 10°. The values pass through the URL so the page stays shareable.

No JS? Fill the form by hand. The geolocation button needs JavaScript.